weather.gov     
National Weather Service

Regional Weather Roundup
NWS Homepage
This page is being discontinued on March 12, 2014.
The same data is available at this site. Please update your bookmarks.
Thank you, and we apologize for the inconvenience.
Please send an email to SR-SRH.Webmaster@noaa.gov with any concerns.


Current Version
Previous Version:    01  02  03  04  05  06  07  08  09  10  11  12  13  14  15  16  17  18  19  20  21  22  23  24  25  26  
[Printable]
532
ASUS42 KFFC 181303
RWRGA
WEATHER ROUNDUP FOR GEORGIA
NATIONAL WEATHER SERVICE PEACHTREE CITY GA
800 AM EST THU DEC 18 2014

NOTE: "FAIR" INDICATES FEW OR NO CLOUDS BELOW 12,000 FEET WITH NO
SIGNIFICANT WEATHER AND/OR OBSTRUCTIONS TO VISIBILITY.

* = USE WITH CAUTION. THE STATIONS MARKED WITH AN ASTERISK MAY NOT
REPORT WEATHER SUCH AS PRECIPITATION, FOG, OR THUNDER AND ARE NOT
QUALITY CONTROLLED BY NWS.

THE REMARK "TC" DENOTES TEMPERATURE READING IN DEGREES CELSIUS.

GAZ001>058-181400-
NORTH GEORGIA

CITY           SKY/WX    TMP DP  RH WIND       PRES   REMARKS
ATLANTA        MOCLDY    36  30  79 NW9       30.17R WCI  29
ATHENS         MOCLDY    37  31  78 CALM      30.15R
CHAMBLEE       PTCLDY    36  30  79 NW6       30.17R WCI  31
PEACHTREE CITY PTCLDY    37  31  78 NW8       30.18R WCI  31
ROME           CLOUDY    38  31  76 N3        30.20F
WEST ATLANTA   PTCLDY    36  30  79 CALM      30.18R
GAINESVILLE    MOCLDY    38  29  70 W6        30.16R WCI  33
CARTERSVILLE   CLOUDY    33  30  88 CALM      30.21F


CITY           SKY/WX    TMP DP  RH WIND       PRES   REMARKS
DALTON*        CLOUDY    36  32  87 NW13      30.20S WCI  27
LAWRENCEVILLE* CLEAR     36  25  64 W5        30.15R WCI  32
MARIETTA       MOCLDY    35  31  86 NW8       30.17R WCI  29
KENNESAW*      MOCLDY    36  28  75 NW5       30.19R WCI  32
$$

GAZ059>098-102>109-181400-
CENTRAL GEORGIA

CITY           SKY/WX    TMP DP  RH WIND       PRES   REMARKS
AUGUSTA-BUSH   MOCLDY    33  32  96 CALM      30.16R
AUGUSTA-DANIEL MOCLDY    39  36  89 W3        30.15R
COLUMBUS       MOCLDY    39  35  86 NW6       30.19R WCI  35
MACON          CLOUDY    34  34 100 W3        30.18R FOG
ROBINS AFB     CLOUDY    38  35  88 W2        30.18R


CITY           SKY/WX    TMP DP  RH WIND       PRES   REMARKS
LAGRANGE*      MOCLDY    35  34  96 CALM      30.17F
SYLVANIA*      CLOUDY    37  37 100 CALM      30.17R FOG
MILLEDGEVILLE* CLOUDY    36  36 100 CALM      30.16R
$$

GAZ099>101-110>166-181400-
SOUTH GEORGIA

CITY           SKY/WX    TMP DP  RH WIND       PRES   REMARKS
SAVANNAH       CLOUDY    42  37  82 W5        30.17R
VALDOSTA       CLOUDY    39  38  96 CALM      30.18R FOG
ALMA           CLOUDY    42  39  89 NW3       30.16R
ST SIMONS      MOCLDY    43  40  89 CALM      30.16R
FT STEWART     CLOUDY    41  38  90 NW1       30.16R
ALBANY         CLOUDY    41  39  93 NW3       30.21R
HUNTER AFB     CLOUDY    41  39  92 W6        30.15R
MOODY AFB      CLOUDY    42  40  94 NW2       30.17R
BRUNSWICK      MOCLDY    41  39  93 CALM      30.17R


CITY           SKY/WX    TMP DP  RH WIND       PRES   REMARKS
BAINBRIDGE*    CLOUDY    43  43 100 NW3       30.21R
MOULTRIE*      CLOUDY    41  41 100 CALM      30.18S
VIDALIA*       CLOUDY    39  37  93 CALM      30.17R
WAYCROSS*      CLOUDY    45  44  95 CALM      30.17R
DOUGLAS*       CLOUDY    45  41  87 CALM      30.18S
$$




U.S. Dept. of Commerce
NOAA National Weather Service
1325 East West Highway
Silver Spring, MD 20910
E-mail: w-nws.webmaster@noaa.gov
Page last modified: May 16, 2007
NATIONAL WEATHER SERVICE: for Safety, for Work, for Fun - FOR LIFE